Regional Weather Roundup
Issued by NWS Wakefield, VA

Home | Current Version | Previous Version | Text Only | Print | Product List | Glossary On
Versions: 1 2 3 4 5 6 7 8 9 10 11 12 13 14 15 16 17 18 19 20 21 22 23 24 25 26 27 28 29 30 31 32 33 34 35 36 37 38 39 40 41 42 43 44 45 46 47 48 49 50
000
ASUS41 KAKQ 060115
RWRAKQ

REGIONAL WEATHER ROUNDUP
NATIONAL WEATHER SERVICE WAKEFIELD VA
900 PM EDT SUN JUL 05 2015

Note: "fair" indicates few or no clouds below 12,000 feet with no
significant weather and/or obstructions to visibility. * = Denotes
station may not report precipitation (e.g., rain,snow,etc.),
thunder or fog.

VAZ042-051-052>054-056-060200-
NORTHERN VIRGINIA

CITY           SKY/WX    TMP DP  RH WIND       PRES   REMARKS
WASH NATIONAL  CLOUDY    80  71  74 SE7       30.12S
DULLES         CLOUDY    77  70  79 S3        30.11F
FORT BELVOIR   MOCLDY    75  72  88 E2        30.12R
QUANTICO       LGT RAIN  79  69  71 SE9       30.12R
FREDERICKSBRG* LGT RAIN  78  76  92 E3        30.10S
STAFFORD*      LGT RAIN  76  69  79 E6        30.15S
WARRENTON      MOCLDY    76  74  95 E3        30.12R
CULPEPER*      CLOUDY    73  72  95 CALM      30.12R THUNDER
MANASSAS*      CLEAR     75  73  94 CALM      30.12S
LEESBURG*      MOCLDY    79  72  78 SE3       30.12F
WINCHESTER     CLOUDY    75  70  83 SE5       30.12F
FRONT ROYAL*   FAIR      73  68  83 CALM      30.11S
LURAY*         MOCLDY    77  70  78 CALM      30.12S
$$

VAZ048-049-060>072-079>083-060200-
CENTRAL AND SOUTH CENTRAL VIRGINIA

CITY           SKY/WX    TMP DP  RH WIND       PRES   REMARKS
RICHMOND       LGT RAIN  74  71  91 SE6       30.11F
CHESTERFIELD*  NOT AVBL
PETERSBURG*    LGT RAIN  73  73 100 CALM      30.11S
HANOVER        LGT RAIN  74  73  97 CALM      30.12F FOG
TAPPAHANNOCK*  LGT RAIN  76  71  84 CALM      30.12S
QUINTON*       NOT AVBL
CHARLOTTSVILLE CLOUDY    77  69  76 E5        30.11F
GORDONSVILLE*  CLOUDY    73  73 100 CALM      30.10F
ORANGE*        CLOUDY    77  73  88 CALM      30.12F
LOUISA*        CLOUDY    77  72  83 SE8       30.11S
BUMPASS*       FAIR      74  71  89 SE6       30.12R
FARMVILLE*     CLOUDY    74  74 100 SE3       30.11R THUNDER
CREWE*         CLOUDY    72  70  95 CALM      30.13R
FORT PICKETT*  MOCLDY    71  70  98 CALM      30.12R
CHASE CITY*    CLOUDY    73  73 100 W3        30.14R
CLARKSVILLE*   CLOUDY    72  72 100 NE3       30.12R
SOUTH HILL*    CLOUDY    71  70  96 CALM      30.17R THUNDER
LAWRENCEVILLE* NOT AVBL
EMPORIA*       RAIN      72  70  94 CALM      30.12R
$$

VAZ088>098-060200-
SOUTHEAST VIRGINIA

CITY           SKY/WX    TMP DP  RH WIND       PRES   REMARKS
NORFOLK        CLOUDY    77  73  87 E5        30.10S
VIRGINIA BEACH CLOUDY    80  74  81 E6        30.10R THUNDER
NORFOLK NAVAL  CLOUDY    76  74  93 E5        30.11S THUNDER
WEST POINT*    CLOUDY    77  73  88 CALM      30.13S
SALUDA*        MOCLDY    75  73  91 SE5       30.11S
NEWPORT NEWS   LGT RAIN  76  74  93 CALM      30.12R
LANGLEY AFB    CLOUDY    76  74  93 E5        30.10R
FORT EUSTIS    DRIZZLE   75  75 100 CALM      30.11R
WILLIAMSBURG*  CLOUDY    77  75  94 CALM      30.13R
HR EXEC AP*    FAIR      75  72  88 CALM      30.12R THUNDER
FRANKLIN*      CLOUDY    72  71  95 CALM      30.11F THUNDER
WAKEFIELD      LGT RAIN  73  71  93 VRB3      30.11S FOG
$$

VAZ020-022-025-037-045-060200-
WEST CENTRAL AND SOUTHWEST VIRGINIA

CITY           SKY/WX    TMP DP  RH WIND       PRES   REMARKS
STAUNTON*      CLOUDY    76  69  79 CALM      30.15S
WAYNESBORO*    CLOUDY    72  69  91 SE5       30.14F
HOT SPRINGS VA HVY RAIN  66  66 100 E5        30.21S VSB<1/4
LYNCHBURG      TSTM      72  72 100 S9        30.13R FOG
DANVILLE       CLOUDY    73  70  90 CALM      30.10R
SOUTH BOSTON*  CLOUDY    70  69  95 MISG      30.11F
MARTINSVILLE   MOCLDY    71  71 100 CALM      30.13R
ROANOKE        LGT RAIN  70  69  97 SE14      30.13R
BLACKSBURG     LGT RAIN  70  70 100 E5        30.17S
DUBLIN*        CLOUDY    67  67 100 E5        30.14F
MARION*        HVY RAIN  66  64  94 W7        30.16S
HILLSVILLE*    MOCLDY    65  64  98 E5        30.14S
RICHLANDS*     CLOUDY    67  67 100 CALM      30.14R FOG
WISE*          CLOUDY    68  68 100 CALM      30.14R
ABINGDON*      MOCLDY    69  69  99 CALM      30.11R
$$

MDZ021>025-VAZ099-100-060200-
SOUTHERN MARYLAND AND THE DELMARVA PENINSULA

CITY           SKY/WX    TMP DP  RH WIND       PRES   REMARKS
PATUXENT RIVER CLOUDY    77  71  82 S3        30.11S
BAY BRIDGE APT   N/A     77  68  73 CALM      30.12F
LEONARDTOWN    CLOUDY    75  70  83 CALM      30.13F
DOVER          MOCLDY    73  72  98 SE6       30.12R
GEORGETOWN     MOCLDY    73  69  87 SE6       30.14R
EASTON         NOT AVBL
CAMBRIDGE      MOCLDY    77  72  83 CALM      30.12S
SALISBURY      MOCLDY    73  71  93 SE3       30.13S
OCEAN CITY     MOCLDY    74  70  87 SE3       30.14R
WALLOPS ISLAND CLOUDY    75  72  90 SE7       30.14S
ACCOMACK*      CLOUDY    73  72  94 CALM      30.12F
$$

NCZ012>017-030>032-060200-
NORTH CENTRAL AND EASTERN NORTH CAROLINA

CITY           SKY/WX    TMP DP  RH WIND       PRES   REMARKS
ROANOKE RAPIDS RAIN      72  70  94 NE3       30.11R
RALEIGH        TSTM      70  66  88 SW29G40   30.16R FOG
ELIZABETH CITY PTCLDY    81  74  79 S6        30.09R
AHOSKIE*       CLOUDY   N/A N/A N/A NW5       30.10S
EDENTON*         N/A     82  73  72 S9        30.08R
CURRITUCK*     PTCLDY    79  76  89 CALM      30.09F
KILL DEVIL HLS PTCLDY    81  72  74 S7        30.09S
MANTEO         PTCLDY    81  74  80 S15       30.10S
CAPE HATTERAS  CLEAR     78  75  90 SW10      30.13R
TARBORO*         N/A     78  71  79 NE5       30.09S
GOLDSBORO      PTCLDY    83  72  69 S6        30.06S
WASHINGTON     CLEAR     82  71  69 S8        30.10R
GREENVILLE     PTCLDY    82  72  69 S7        30.10R
NEW BERN       CLEAR     80  73  79 S9        30.12R
WILMINGTON     MOCLDY    80  72  76 SW10      30.11S
$$

VAZ048-060200-
ELSEWHERE

CITY           SKY/WX    TMP DP  RH WIND       PRES   REMARKS
HARRISBURG PA  CLOUDY    71  66  84 CALM      30.12R
BALTIMORE      CLOUDY    77  67  71 CALM      30.12R
ANNAPOLIS      MOCLDY    77  70  79 E3        30.11S
ANDREWS AFB    MOCLDY    74  73  97 SE6       30.12S
PHILADELPHIA   MOCLDY    79  66  64 S8        30.13R
HENDERSON NC   CLOUDY    71  68  90 NE5       30.11R
GREENSBORO     MOCLDY    73  69  87 SE7       30.09R
ROCKY MOUNT    MOCLDY    75  73  93 CALM      30.09R
$$

VAZ100-060200-
MARINE

STATION/POSITION TIME  TEMP    WIND        PRES    WAVE   SWELL
                       AIR SEA DIR/SP/G            HT/PER HT/PER
                 (UTC) (F)     (DEG/KT/KT) (MB)    (FT/S) (FT/S)
BRANDYWINE LGT   0000   74 75  150/ 12/ 13 1020.6R
CAPE MAY NJ      0000   74 78  120/  6/  7 1020.3R
LEWES DE         0000   74 75  140/  5/  7 1020.2R
15NM E FENWICK I 0050   75 75              1020.4R   3/ 6
OCEAN-CITY-INLET 0000   76 78  140/  5/  8 1020.1R
WACHAPREAGUE VA  0000   76 84  120/  5/  8 1020.3R
GOOSES REEF MD   0100   79 79  190/  8/  8 1020.7F
COVE POINT MD    0000   78     190/  6/  7 1020.4R
SOLOMONS ISLAND  0000      82                N/A
BISHOPS HEAD MD  0000   79     160/ 11/ 12 1019.6R
PINEY POINT MD   0000          180/ 10/ 12   N/A
CAMBRIDGE MD     0000   79 79  310/  3/  4 1019.7R
LEWISETTA VA     0000   78 81  170/  6/  7 1019.7R
RAPPAHANNOCK LGT 0000          110/  7/  8 1020.5R
STINGRAY PT      0100   78 80  120/  8/ 10 1020.0S   1/ 3
YORK RVR RNG VA  0000   78     120/  8/  9 1018.9F
YORKTOWN VA      0000   77 81  100/  6/  7 1019.1F
JAMESTOWN VA     0100   76 83   90/  2/  4   N/A
DOMINION TERM VA 0000   78      80/ 11/ 14 1018.8F
KIPTOPEKE VA     0000      83  110/  6/  8   N/A
CHES BAY BRIDGE  0000   77 78   80/  9/ 11 1018.8F
CAPE HENRY VA    0000   77      90/  9/ 10   N/A
CHESAPEAKE LGHT  0000   77     100/ 10/ 11 1020.0R
WILLOUBY STN VA  0000   77      80/  9/ 11 1019.8F
CAPE HENRY BUOY  0028      78                N/A     3/ 8
1ST LANDING BUOY 0100      78              1019.0R   1/ 3
CAPE CHARLES BUO 0026      77                N/A     2/13   2/13
OFFSHORE WE BUOY 0011      78                N/A     3/ 8   3/ 8
64NM E OF VA BCH 0050   78 78  130/  8/  8 1019.3F   3/ 6   3/ 6
DUCK PIER NC     0000   83 77  180/ 10/ 12   N/A
44100 DUCK FRF   0024      79                N/A     3/14
44056 DUCK FRF   0011      79                N/A     2/13   2/13
OREGON INLET NC  0000   81 83  180/ 14/ 16 1019.2R
HATTERAS NC      0000   80 81  180/  5/ 10 1019.4R
DIAMOND SHLS NC  0050   81 81  210/ 14/ 17 1019.8R   3/ 8   2/ 8
CAPE LOOKOUT NC  0100   80     210/ 11/ 15 1020.2R
$$



USA.gov is the U.S. government's official web portal to all federal, state and local government web resources and services.